Station 41013 (LLNR 815) - Frying Pan Shoals, NC Image indicating link to RSS feed of recent meteorological observations for station 41013


Conditions at 41013 as of
(4:30 am EDT)
0830 GMT on 05/30/2024:
     

Click on the graph icon in the table below to see a time series plot of the last five days of that observation.

5-day plot - Wind Direction Wind Direction (WDIR): W ( 270 deg true )
5-day plot - Wind Speed Wind Speed (WSPD):2.0 m/s
5-day plot - Wind Gust Wind Gust (GST):3.0 m/s
5-day plot - Atmospheric Pressure Atmospheric Pressure (PRES):1014.1 mb
5-day plot - Air Temperature Air Temperature (ATMP): 25.0 °C
5-day plot - Water Temperature Water Temperature (WTMP): 25.0 °C
5-day plot - Dew Point Dew Point (DEWP): 23.6 °C
5-day plot - Wind Speed at 10 Meters Wind Speed at 10 meters (WSPD10M): 2 m/s
5-day plot - Wind Speed at 20 Meters Wind Speed at 20 meters (WSPD20M): 2 m/s
5-day plot -  Wind Speed, Wind Gust and Atmospheric Pressure Combined plot of Wind Speed, Gust, and Air Pressure
Supplemental Measurements
Highest 1-minute Wind Speed
Time (EDT)5-day plot - 1-Minute Wind Speed WSPD 5-day plot - 1-Minute Wind Direction WDIR
4:29 am 2 m/s-
Previous observations
TIME
(EDT)
5-day plot - Wind Direction
WDIR
 
5-day plot - Wind Speed
WSPD
m/s
5-day plot - Wind Gust
GST
m/s
5-day plot - Wave Height
WVHT
m
5-day plot - Dominant Wave Period
DPD
sec
5-day plot - Average Wave Period
APD
sec
5-day plot - Mean Wave Direction
MWD
 
5-day plot - Atmospheric Pressure
PRES
mb
5-day plot - Pressure Tendency
PTDY
mb
5-day plot - Air Temperature
ATMP
°C
5-day plot - Water Temperature
WTMP
°C
5-day plot - Dew Point
DEWP
°C
5-day plot - Salinity
SAL
psu
5-day plot - Visibility
VIS
km
5-day plot - Tide (above MLLW)
TIDE
m
2024-05-30 04:20 am W 2.0 2.0 0.5 75.1 SE1014.0- 25.1 25.0 23.9---
2024-05-30 04:10 amWSW 2.0 2.0 0.5-5.1 SE1014.0- 25.1 25.0 23.9---
2024-05-30 04:00 amWSW 2.0 2.0----1014.0 -0.9 25.1 25.0 23.9---
2024-05-30 03:50 amWSW 1.0 2.0 0.6 65.2 SE1014.1- 25.1 25.0 23.9---
2024-05-30 03:40 amWSW 1.0 2.0 0.6-5.2 SE1014.1- 25.1 25.1 23.8---
2024-05-30 03:30 amWSW 2.0 2.0----1014.2- 25.1 25.1 23.8---
2024-05-30 03:20 amWSW 2.0 2.0 0.6 85.1ESE1014.2-- 25.1----
2024-05-30 03:10 am SW 2.0 2.0----1014.2- 25.0 25.2 23.8---
2024-05-30 03:00 amWSW 2.0 2.0----1014.3 -0.4 24.9 25.0 23.7---
2024-05-30 02:50 am W 2.0 2.0 0.5 64.7 SE1014.5- 24.8 25.0 23.6---
2024-05-30 02:40 am W 1.0 2.0 0.5-4.7 SE1014.4- 24.8 25.1 23.7---
2024-05-30 02:30 am W 1.0 2.0----1014.5- 24.8 25.1 23.8---
2024-05-30 02:20 am W 1.0 2.0 0.5 64.8 SE1014.6-- 25.1----
2024-05-30 02:10 am W 1.0 1.0----1014.5- 24.9 25.1 23.9---
2024-05-30 02:00 am W 1.0 2.0----1014.5 -0.3 24.9 25.1 23.7---
2024-05-30 01:50 amWNW 2.0 2.0 0.6 64.8 SE1014.6- 24.9 25.1 23.7---
2024-05-30 01:40 am NW 1.0 2.0----1014.8- 24.9 25.1 23.6---
2024-05-30 01:30 am N 2.0 3.0----1014.8- 25.0 25.1 23.6---
2024-05-30 01:20 am- 0.0 1.0 0.6 64.7 SE1014.8- 25.0 25.1 23.5---
2024-05-30 01:10 am- 0.0 1.0 0.6-4.7 SE1014.9- 25.0 25.2 23.4---
2024-05-30 01:00 am- 0.0 1.0----1014.9 +0.0 25.0 25.2 23.2---
2024-05-30 12:50 am- 0.0 1.0 0.6 64.8 SE1015.0- 25.1 25.2 23.2---
2024-05-30 12:40 amWNW 1.0 1.0----1014.9- 25.2 25.1 23.2---
2024-05-30 12:30 am- 0.0 1.0----1014.8- 25.1 25.1 23.0---
2024-05-30 12:20 am- 0.0 1.0 0.6 64.8SSE1014.8- 25.1 25.1 23.1---
2024-05-30 12:10 am- 0.0 1.0 0.6-4.8SSE1014.8- 25.3 25.1 23.2---
2024-05-30 12:00 am- 0.0 1.0----1014.8 +0.0 25.4 25.0 23.1---
2024-05-29 11:50 pm SW 1.0 1.0 0.6 64.7 SE1014.8- 25.4 25.0 22.9---
2024-05-29 11:40 pm SW 1.0 2.0----1014.8- 25.5 25.1 22.9---
2024-05-29 11:30 pmWSW 2.0 2.0----1014.8- 25.6 25.1 22.9---
2024-05-29 11:20 pmWSW 3.0 3.0 0.6 54.8SSE1014.8- 25.5 25.0 22.7---
2024-05-29 11:10 pmWSW 3.0 3.0 0.6-4.8SSE1014.8- 25.5 25.0 22.9---
2024-05-29 11:00 pmWSW 2.0 3.0----1014.8 +0.4 25.5 25.0 22.9---
2024-05-29 10:50 pmWSW 3.0 3.0 0.6 54.9 S1014.8- 25.6 25.1 22.9---
2024-05-29 10:40 pmWSW 3.0 3.0 0.6-4.9 S1014.9- 25.6 25.3 22.6---
2024-05-29 10:30 pmWSW 2.0 3.0----1014.8- 25.7 25.6 22.4---
2024-05-29 10:20 pmWSW 2.0 3.0 0.6 64.8 SE1014.9-- 25.8----
2024-05-29 10:10 pm SW 2.0 3.0----1014.8- 25.8 26.0 21.9---
2024-05-29 10:00 pm SW 2.0 3.0----1014.8 +0.8 25.8 26.1 21.8---
2024-05-29 09:50 pm SW 2.0 3.0 0.6 54.8 S1014.6- 25.9 26.1 21.8---
2024-05-29 09:40 pm SW 3.0 3.0 0.6-4.8 S1014.6- 26.0 26.1 21.6---
2024-05-29 09:30 pmWSW 3.0 4.0----1014.6- 26.0 26.1 21.6---
2024-05-29 09:20 pm SW 3.0 3.0 0.6 54.8SSE1014.5- 26.1 26.1 21.3---
2024-05-29 09:10 pm SW 3.0 3.0 0.6-4.8SSE1014.4- 26.1 26.1 20.9---
2024-05-29 09:00 pm SW 3.0 4.0----1014.5 +0.5 26.1 26.0 21.1---
2024-05-29 08:50 pm SW 3.0 4.0 0.6 64.9 S1014.7- 26.2 26.0 21.1---
2024-05-29 08:40 pm SW 4.0 4.0----1014.8- 26.1 26.2 20.8---
2024-05-29 08:30 pmSSW 4.0 4.0----1014.8- 26.2 26.2 21.0---
2024-05-29 08:20 pmSSW 4.0 4.0 0.6 54.9 S1014.8- 26.2 26.2 20.6---
2024-05-29 08:10 pmSSW 4.0 4.0 0.6-4.9 S1014.8- 26.3 26.2 20.4---
2024-05-29 08:00 pmSSW 3.0 4.0----1014.5 +0.0 26.3 26.0 20.1---
2024-05-29 07:50 pmSSW 3.0 4.0 0.7 55.0 S1014.5- 26.5 26.3 19.8---
2024-05-29 07:40 pmSSW 3.0 4.0----1014.3- 26.5 26.1 19.2---
2024-05-29 07:30 pmSSW 3.0 3.0----1014.2- 26.5 26.0 19.0---
2024-05-29 07:20 pmSSW 3.0 4.0 0.7 65.2 S1014.1- 26.5 25.7 18.8---
2024-05-29 07:10 pmSSW 3.0 3.0----1014.0- 26.6 25.6 18.8---
2024-05-29 07:00 pm S 2.0 3.0----1014.0 -0.7 26.6 25.8 19.0---
2024-05-29 06:50 pm S 2.0 3.0 0.6 54.9 S1014.0- 26.6 25.9 19.2---
2024-05-29 06:40 pm S 2.0 3.0 0.6-4.9 S1014.0- 26.5 26.0 19.4---
2024-05-29 06:30 pm S 2.0 3.0----1014.0- 26.4 25.7 19.8---
2024-05-29 06:20 pmSSW 2.0 3.0 0.6-5.0 S1014.0-- 25.6----
2024-05-29 06:10 pm S 2.0 3.0 0.6-5.0 S1014.1- 26.3 25.5 20.3---
2024-05-29 06:00 pm S 1.0 2.0----1014.2 -0.7 26.3 25.5 20.3---
2024-05-29 05:50 pmSSE 1.0 2.0 0.6 64.9SSE1014.2- 26.2 25.5 20.5---
2024-05-29 05:40 pm S 1.0 2.0 0.6-4.9SSE1014.4- 26.4 25.4 20.7---
2024-05-29 05:30 pm- 0.0 1.0----1014.5- 26.6 25.5 20.9---
2024-05-29 05:20 pm SW 1.0 1.0 0.6 65.1 S1014.5- 26.6 25.4 21.2---
2024-05-29 05:10 pm- 0.0 1.0 0.6-5.1 S1014.6- 26.8 25.4 21.7---
2024-05-29 05:00 pm- 0.0 1.0----1014.5 -1.0 26.9 25.5 21.8---
2024-05-29 04:50 pm- 0.0 1.0 0.6 65.1 S1014.5- 27.2 25.4 21.6---
2024-05-29 04:40 pm- 0.0 0.0----1014.5- 27.0 25.4 21.8---
2024-05-29 04:30 pm- 0.0 1.0----1014.6- 26.4 25.3 21.5---
2024-05-29 04:20 pmNNE 1.0 1.0 0.6 65.0 S1014.6- 26.5 25.3 21.7---
2024-05-29 04:10 pm- 0.0 1.0 0.6-5.0 S1014.6- 26.3 25.2 21.3---
2024-05-29 04:00 pm- 0.0 1.0----1014.6 -0.9 26.2 25.3 21.3---
2024-05-29 03:50 pm N 1.0 1.0 0.7-5.0 S1014.6-- 25.3----
2024-05-29 03:40 pm N 2.0 2.0 0.7-5.0 S1014.6- 26.0 25.4 21.0---
2024-05-29 03:30 pmNNW 1.0 2.0----1014.6- 26.2 25.2 20.7---
2024-05-29 03:20 pm- 0.0 1.0 0.6 64.7 S1014.7- 26.1 25.4 20.6---
2024-05-29 03:10 pm- 0.0 0.0 0.6-4.7 S1014.8- 26.0 25.3 20.6---
2024-05-29 03:00 pm N 1.0 1.0----1014.9 -0.8 25.7 25.2 20.6---
2024-05-29 02:50 pm N 1.0 2.0 0.6 64.8SSE1015.0- 25.7 25.1 20.7---
2024-05-29 02:40 pm N 1.0 2.0 0.6-4.8SSE1015.1- 25.6 25.3 20.3---
2024-05-29 02:30 pm N 1.0 1.0----1015.1- 25.6 25.2 20.3---
2024-05-29 02:20 pm N 1.0 2.0 0.7 65.0SSE1015.2- 25.4 25.2 20.0---
2024-05-29 02:10 pm N 2.0 3.0 0.7-5.0SSE1015.3- 25.3 25.3 20.2---
2024-05-29 02:00 pm N 2.0 3.0----1015.5 -0.6 25.2 25.3 20.5---
2024-05-29 01:50 pm N 2.0 3.0 0.7 64.8SSE1015.5- 25.2 25.2 20.9---
2024-05-29 01:40 pm N 3.0 3.0----1015.5- 25.2 25.3 20.8---
2024-05-29 01:30 pm N 3.0 4.0----1015.6- 25.1 25.2 20.6---
2024-05-29 01:20 pm N 3.0 4.0 0.6 64.8 S1015.6- 25.1 25.2 20.7---
2024-05-29 01:10 pmNNE 3.0 4.0 0.6-4.8 S1015.6- 25.0 25.2 20.5---
2024-05-29 01:00 pmNNE 3.0 4.0----1015.5 -0.3 25.0 25.2 20.8---
2024-05-29 12:50 pmNNE 3.0 4.0 0.7 64.9 S1015.6-- 25.1----
2024-05-29 12:40 pmNNE 3.0 4.0----1015.5- 25.0 25.1 20.7---
2024-05-29 12:30 pmNNE 3.0 3.0----1015.5- 24.9 25.0 20.4---
2024-05-29 12:20 pmNNE 3.0 3.0 0.7 65.0 S1015.6- 24.9 25.0 20.4---
2024-05-29 12:10 pmNNE 3.0 4.0 0.7-5.0 S1015.5- 24.8 25.1 20.1---
2024-05-29 12:00 pmNNE 3.0 4.0----1015.6 +1.0 24.8 25.0 20.3---
2024-05-29 11:50 am N 3.0 4.0 0.7 64.8SSE1015.8- 24.7 25.0 20.4---
2024-05-29 11:40 am N 3.0 4.0 0.7-4.8SSE1015.9- 24.7 25.0 20.7---
2024-05-29 11:30 am N 4.0 4.0----1015.8- 24.7 24.9 20.7---
2024-05-29 11:20 am N 4.0 5.0 0.8 64.8SSE1015.9- 24.7 24.9 20.6---
2024-05-29 11:10 am N 4.0 5.0 0.8-4.8SSE1015.9- 24.7 24.9 20.5---
2024-05-29 11:00 am N 4.0 5.0----1016.1 +1.9 24.7 24.9 20.7---
2024-05-29 10:50 am N 4.0 6.0 0.8 64.8SSE1015.9- 24.5 24.9 20.4---
2024-05-29 10:40 am N 5.0 6.0----1015.9- 24.5 24.9 21.1---
2024-05-29 10:30 am N 5.0 6.0----1015.9- 24.5 24.9 21.6---
2024-05-29 10:20 amNNW 5.0 7.0 0.8 64.9 S1015.9- 24.5 24.9 22.1---
2024-05-29 10:10 amNNW 5.0 6.0 0.8-4.9 S1015.9- 24.6 24.8 22.8---
2024-05-29 10:00 amNNW 5.0 6.0----1015.9 +1.7 24.8 24.8 23.2---
2024-05-29 09:50 amNNW 3.0 5.0 0.8 64.9 S1015.8- 24.8 24.7 23.1---
2024-05-29 09:40 amNNW 3.0 4.0 0.8-4.9 S1015.9- 24.8- 23.2---
2024-05-29 09:30 amNNW 3.0 4.0----1015.6- 24.7 24.8 23.2---
2024-05-29 09:20 amNNW 3.0 4.0 0.8 64.7 S1015.3- 24.6 24.7 23.4---
2024-05-29 09:10 am NW 2.0 3.0 0.8-4.7 S1015.0- 24.7 24.7 23.8---
2024-05-29 09:00 am NW 2.0 2.0----1014.8 +0.9 24.7 24.8 23.8---
2024-05-29 08:50 am NW 1.0 2.0 0.8 64.8 S1014.5- 24.8 24.8 23.7---
2024-05-29 08:40 am NW 1.0 2.0 0.8-4.8 S1014.6- 24.8 24.7 23.5---
2024-05-29 08:30 am NW 1.0 2.0----1014.2- 24.8 24.7 23.4---
2024-05-29 08:20 am NW 2.0 2.0 0.9 64.9SSE1014.2- 24.7 24.7 23.3---
2024-05-29 08:10 amWNW 2.0 2.0 0.9-4.9SSE1014.1- 24.8 24.7 23.2---
2024-05-29 08:00 amWNW 1.0 2.0----1014.2 +0.9 24.7 24.7 23.2---
2024-05-29 07:50 amWNW 2.0 2.0 1.0 75.0SSE1014.2- 24.7 24.7 23.2---
2024-05-29 07:40 amWNW 2.0 3.0----1014.2- 24.7 24.7 23.1---
2024-05-29 07:30 amWNW 2.0 3.0----1014.1- 24.8 24.7 23.2---
2024-05-29 07:20 amWNW 2.0 3.0 0.9 65.0 S1014.2- 24.8 24.7 23.1---
2024-05-29 07:10 amWNW 2.0 2.0 0.9-5.0 S1014.3- 24.8 24.7 22.9---
2024-05-29 07:00 amWNW 1.0 2.0----1014.2 +0.9 24.7 24.7 22.6---
2024-05-29 06:50 am W 1.0 2.0 0.9 74.9SSE1014.2- 24.6 24.6 22.5---
2024-05-29 06:40 am W 1.0 2.0 0.9-4.9SSE1014.2- 24.5 24.6 22.5---
2024-05-29 06:30 am W 1.0 1.0----1014.0- 24.4 24.6 22.6---
2024-05-29 06:20 am- 0.0 1.0 1.0 64.9SSE1014.0- 24.4 24.6 22.6---
2024-05-29 06:10 am- 0.0 1.0 1.0-4.9SSE1014.0- 24.4 24.6 22.6---
2024-05-29 06:00 am- 0.0 1.0----1013.8 +0.0 24.4 24.6 22.5---
2024-05-29 05:50 am- 0.0 1.0 0.9 64.8SSE1013.7- 24.4 24.6 22.5---
2024-05-29 05:40 am- 0.0 1.0----1013.6- 24.4 24.6 22.6---
2024-05-29 05:30 amWNW 1.0 2.0----1013.5- 24.5 24.6 22.6---
2024-05-29 05:20 am W 2.0 2.0 0.9 74.7SSE1013.5- 24.5 24.6 22.7---
2024-05-29 05:10 am W 2.0 2.0 0.9-4.7SSE1013.4- 24.5 24.6 22.8---
2024-05-29 05:00 am W 2.0 2.0----1013.4 -0.4 24.5 24.7 22.8---
2024-05-29 04:50 am W 1.0 2.0 1.0-4.6 S1013.2-- 24.7----
2024-05-29 04:40 amWSW 1.0 1.0 1.0-4.6 S1013.1- 24.6 24.7 22.7---
2024-05-29 04:30 am SW 1.0 2.0----1013.4- 24.6 24.7 22.6---
2024-05-29 04:20 amWSW 1.0 2.0 0.9 74.6SSE1013.5- 24.6 24.7 22.5---
2024-05-29 04:10 am W 1.0 1.0 0.9-4.6SSE1013.3- 24.5 24.7 22.5---
2024-05-29 04:00 am W 2.0 2.0----1013.2 -1.1 24.7 24.7 22.7---
2024-05-29 03:50 am W 1.0 2.0 0.9-4.4 S1013.2-- 24.7----

Detailed Wave Summary
for 41013 as of (4:10 am EDT)
0810 GMT on 05/30/2024:

These wave data are displayed in rounded times.

     

Click on the graph icon in the table below to see a time series plot of the last five days of that observation.

5-day plot - Significant Wave Height Significant Wave Height (WVHT): 0.5 m
5-day plot - Swell Height Swell Height (SwH): 0.5 m
5-day plot - Swell Period Swell Period (SwP): 6.7 sec
5-day plot - Swell Direction Swell Direction (SwD): SE
5-day plot - Wind Wave Height Wind Wave Height (WWH): 0.2 m
5-day plot - Wind Wave Period Wind Wave Period (WWP): 3.7 sec
5-day plot - Wind Wave Direction Wind Wave Direction (WWD):SSW
5-day plot - Average Wave Period Average Wave Period (APD): 5.1 sec
Previous observations
TIME
(EDT)
5-day plot - Wave Height
WVHT
m
5-day plot - Swell Height
SwH
m
5-day plot - Swell Period
SwP
sec
5-day plot - Swell Direction
SwD
 
5-day plot - Wind Wave Height
WWH
m
5-day plot - Wind Wave Period
WWP
sec
5-day plot - Wind Wave Direction
WWD
 
5-day plot - Wave Steepness
STEEPNESS
 
5-day plot - Average Wave Period
APD
sec
2024-05-30 03:40 am 0.6 0.5 5.9 SE 0.2 3.7 SSW N/A 5.2
2024-05-30 03:10 am 0.6 0.5 8.3ESE 0.2 3.8 S N/A 5.1
2024-05-30 02:40 am 0.5 0.5 5.9 SE 0.2 4.0 S N/A 4.7
2024-05-30 02:10 am 0.5 0.5 6.2 SE 0.2 3.7 SSW N/A 4.8
2024-05-30 01:40 am 0.6 0.5 6.2 SE 0.2 3.6 SSW N/A 4.8
2024-05-30 01:10 am 0.6 0.5 5.9 SE 0.3 3.7 S N/A 4.7
2024-05-30 12:40 am 0.6 0.5 6.2 SE 0.3 4.0 SSW N/A 4.8
2024-05-30 12:10 am 0.6 0.5 5.6SSE 0.2 3.8 S N/A 4.8
2024-05-29 11:40 pm 0.6 0.5 5.9 SE 0.3 4.0 S N/A 4.7
2024-05-29 11:10 pm 0.6 0.5 5.3SSE 0.2 3.7 S N/A 4.8
2024-05-29 10:40 pm 0.6 0.5 5.3 S 0.3 4.0 S N/A 4.9
2024-05-29 10:10 pm 0.6 0.5 5.9 SE 0.3 4.0 SSW N/A 4.8
2024-05-29 09:40 pm 0.6 0.5 5.3 S 0.3 3.7 S N/A 4.8
2024-05-29 09:10 pm 0.6 0.5 5.3SSE 0.3 4.0 S N/A 4.8
2024-05-29 08:40 pm 0.6 0.6 5.6 S 0.3 3.8 S N/A 4.9
2024-05-29 08:10 pm 0.6 0.6 5.3 S 0.2 4.0 S N/A 4.9
2024-05-29 07:40 pm 0.7 0.6 5.3 S 0.2 3.6 S N/A 5.0
2024-05-29 07:10 pm 0.7 0.6 5.9 S 0.2 4.0 S N/A 5.2
2024-05-29 06:40 pm 0.6 0.6 5.3 S 0.3 3.3 SSW N/A 4.9
2024-05-29 06:10 pm 0.6 0.6 5.9 S 0.2 3.8 S N/A 5.0
2024-05-29 05:40 pm 0.6 0.5 5.9SSE 0.2 3.7 SSW N/A 4.9
2024-05-29 05:10 pm 0.6 0.6 5.9 S 0.2 4.0 SSW N/A 5.1
2024-05-29 04:40 pm 0.6 0.6 6.2 S 0.2 3.8 SSW N/A 5.1
2024-05-29 04:10 pm 0.6 0.6 5.9 S 0.2 3.8 SSW N/A 5.0
2024-05-29 03:40 pm 0.7 0.6 6.2 S 0.2 2.6 NNW N/A 5.0
2024-05-29 03:10 pm 0.6 0.5 5.9 S 0.3 3.6 SSW N/A 4.7
2024-05-29 02:40 pm 0.6 0.5 6.2SSE 0.3 4.0 S N/A 4.8
2024-05-29 02:10 pm 0.7 0.6 6.2SSE 0.2 3.8 SSW N/A 5.0
2024-05-29 01:40 pm 0.7 0.6 6.2SSE 0.3 3.8 SSW N/A 4.8
2024-05-29 01:10 pm 0.6 0.6 6.2 S 0.3 3.3 SSW N/A 4.8
2024-05-29 12:40 pm 0.7 0.6 5.9 S 0.3 3.1 SSW N/A 4.9
2024-05-29 12:10 pm 0.7 0.7 5.9 S 0.3 3.2 S N/A 5.0
2024-05-29 11:40 am 0.7 0.6 6.2SSE 0.3 4.0 S N/A 4.8
2024-05-29 11:10 am 0.8 0.7 6.2SSE 0.3 3.8 S N/A 4.8
2024-05-29 10:40 am 0.8 0.7 6.2SSE 0.4 3.8 S N/A 4.8
2024-05-29 10:10 am 0.8 0.7 5.9 S 0.4 4.5 SSW STEEP 4.9
2024-05-29 09:40 am 0.8 0.7 6.2 S 0.3 3.8 SSW AVERAGE 4.9
2024-05-29 09:10 am 0.8 0.7 5.6 S 0.3 3.6 S N/A 4.7
2024-05-29 08:40 am 0.8 0.7 6.2 S 0.3 4.0 S N/A 4.8
2024-05-29 08:10 am 0.9 0.8 6.2SSE 0.3 3.7 S STEEP 4.9
2024-05-29 07:40 am 1.0 0.9 6.7SSE 0.4 3.6 SSW AVERAGE 5.0
2024-05-29 07:10 am 0.9 0.9 6.2 S 0.4 4.0 SSW STEEP 5.0
2024-05-29 06:40 am 0.9 0.8 6.7SSE 0.4 3.7 SSW AVERAGE 4.9
2024-05-29 06:10 am 1.0 0.9 6.2SSE 0.4 4.0 SSW STEEP 4.9
2024-05-29 05:40 am 0.9 0.8 6.2SSE 0.4 3.8 SSW STEEP 4.8
2024-05-29 05:10 am 0.9 0.8 6.7SSE 0.4 3.7 SSW AVERAGE 4.7
2024-05-29 04:40 am 1.0 0.8 5.9 S 0.5 3.8 SSW STEEP 4.6
2024-05-29 04:10 am 0.9 0.8 6.7SSE 0.5 3.8 SSW AVERAGE 4.6

Plot of wave energy versus frequency (and period)